Weather in Novosklyuikha

Russia / Altai Krai     51°32′36″N   81°24′06″E
temp.,
°C
wind,
m/s
gust,
m/s
humid.,
%
clouds,
%
prec.,
mm/h
press.,
hPa
HPBL,
m
13 april, tue
tue1301:00+2se117811 0.0 103110
04:00+2s117359 0.0 103010
07:00+1w227695 0.0 103010
10:00+6nw346245 0.0 1030321
13:00+2nnw3693100 0.9 1033374
16:00+4nne588894 0.0 1034612
19:00+5nne477215 0.1 1035651
22:00+1ne228675 0.0 103715
14 april, wed
wed1401:00+1n34955 0.0 103888
04:00−1n22957 0.0 103720
07:00−1n229038 0.0 103839
10:00+3n22695 0.0 1037384
13:00+7nw22563 0.0 1035695
16:00+10nw234453 0.0 1033998
19:00+11n1147100 0.0 103059
22:00+7se1162100 0.0 103010
15 april, thu
thu1501:00+5sw116779 0.0 102910
04:00+4w11685 0.0 102910
07:00+3wnw11695 0.0 102910
10:00+7nnw22573 0.0 1028262
13:00+11nnw23520 0.0 1027833
16:00+13n335352 0.0 10251303
19:00+13ne33555 0.0 10241144
22:00+8ene36785 0.0 102496
16 april, fri
fri1601:00+6ene34860 0.0 102359
04:00+5ene33880 0.0 102237
07:00+4ene23890 0.0 102128
10:00+9ne34680 0.0 1020316
13:00+13ne33470 0.0 10181039
16:00+15ene22390 0.0 10161323
19:00+15ne11400 0.0 10141135
22:00+10e22560 0.0 101415
17 april, sat
sat1701:00+8ese3367100 0.0 101329
04:00+8ese3369100 0.0 101017
07:00+8ese2264100 0.0 100813
10:00+12ese2355100 0.0 1007161
13:00+14ese3549100 0.0 1005515
16:00+17nne654537 0.0 1003694
19:00+15nne45524 0.0 1005594
22:00+11se22665 0.0 100711